| time (UTC) | temp F | wind direction | speed knots | gust knots | rain 1hr in | rain 24hr in | rain mn in | humidity % | barometer mb |
| 20260505153036 | 45 | 35 | 1.7 | 5.2 | 0.00 | 0.00 | 0.00 | 43 | 1016.0 |
| 20260505152524 | 45 | 338 | 0.9 | 4.3 | 0.00 | 0.00 | 0.00 | 44 | 1016.1 |
| 20260505152026 | 44 | 34 | 0.9 | 3.5 | 0.00 | 0.00 | 0.00 | 48 | 1016.2 |
| 20260505151540 | 43 | 256 | 0.9 | 3.5 | 0.00 | 0.00 | 0.00 | 48 | 1016.2 |
| 20260505151026 | 43 | 127 | 0.9 | 3.5 | 0.00 | 0.00 | 0.00 | 51 | 1016.2 |
| 20260505150523 | 42 | 175 | 0.9 | 3.5 | 0.00 | 0.00 | 0.00 | 50 | 1016.2 |
| 20260505140525 | 39 | 236 | 1.7 | 3.5 | 0.00 | 0.00 | 0.00 | 60 | 1016.6 |
| 20260505125023 | 34 | 257 | 0.9 | 2.6 | 0.00 | 0.00 | 0.00 | 70 | 1015.8 |
| 20260505124550 | 33 | 198 | 0.9 | 2.6 | 0.00 | 0.00 | 0.00 | 71 | 1015.8 |
| 20260505124025 | 33 | 193 | 0.0 | 2.6 | 0.00 | 0.00 | 0.00 | 71 | 1015.8 |
| 20260505123523 | 33 | 0 | 0.0 | 2.6 | 0.00 | 0.00 | 0.00 | 71 | 1015.8 |
| 20260505123049 | 33 | 274 | 0.9 | 2.6 | 0.00 | 0.00 | 0.00 | 70 | 1015.7 |
| 20260505122523 | 33 | 0 | 0.0 | 1.7 | 0.00 | 0.00 | 0.00 | 70 | 1015.6 |
| 20260505122031 | 33 | 0 | 0.0 | 1.7 | 0.00 | 0.00 | 0.00 | 70 | 1015.5 |
| 20260505121607 | 33 | 0 | 0.0 | 1.7 | 0.00 | 0.00 | 0.00 | 69 | 1015.5 |
| 20260505121023 | 33 | 0 | 0.0 | 1.7 | 0.00 | 0.00 | 0.00 | 70 | 1015.4 |
| 20260505120522 | 33 | 274 | 0.9 | 1.7 | 0.00 | 0.00 | 0.00 | 69 | 1015.5 |
| 20260505120037 | 34 | 273 | 0.9 | 1.7 | 0.00 | 0.00 | 0.00 | 68 | 1015.4 |
| 20260505115522 | 34 | 0 | 0.0 | 1.7 | 0.00 | 0.00 | 0.00 | 68 | 1015.4 |
| 20260505115022 | 34 | 0 | 0.0 | 1.7 | 0.00 | 0.00 | 0.00 | 67 | 1015.4 |
| 20260505114536 | 34 | 0 | 0.9 | 1.7 | 0.00 | 0.00 | 0.00 | 66 | 1015.4 |
| 20260505114023 | 34 | 131 | 0.0 | 2.6 | 0.00 | 0.00 | 0.00 | 65 | 1015.3 |
| 20260505113522 | 35 | 0 | 0.0 | 3.5 | 0.00 | 0.00 | 0.00 | 65 | 1015.2 |
| 20260505113046 | 35 | 131 | 0.9 | 3.5 | 0.00 | 0.00 | 0.00 | 65 | 1015.2 |
| 20260505112530 | 35 | 89 | 0.9 | 1.7 | 0.00 | 0.00 | 0.00 | 65 | 1015.2 |
| 20260505112024 | 35 | 89 | 0.0 | 3.5 | 0.00 | 0.00 | 0.00 | 64 | 1015.1 |
| 20260505111540 | 36 | 0 | 0.0 | 3.5 | 0.00 | 0.00 | 0.00 | 63 | 1015.2 |
| 20260505111025 | 36 | 112 | 0.9 | 3.5 | 0.00 | 0.00 | 0.00 | 63 | 1015.2 |
| 20260505110526 | 36 | 112 | 1.7 | 3.5 | 0.00 | 0.00 | 0.00 | 62 | 1015.2 |
| 20260505102022 | 38 | 96 | 0.9 | 3.5 | 0.00 | 0.00 | 0.00 | 56 | 1015.0 |
| 20260505101544 | 39 | 0 | 0.0 | 3.5 | 0.00 | 0.00 | 0.00 | 55 | 1015.1 |
| 20260505101022 | 40 | 0 | 0.0 | 3.5 | 0.00 | 0.00 | 0.00 | 54 | 1015.0 |
| 20260505100524 | 40 | 0 | 0.0 | 6.1 | 0.00 | 0.00 | 0.00 | 54 | 1015.0 |
| 20260505100048 | 40 | 0 | 0.9 | 6.1 | 0.00 | 0.00 | 0.00 | 53 | 1014.9 |
| 20260505095526 | 41 | 321 | 2.6 | 6.1 | 0.00 | 0.00 | 0.00 | 53 | 1015.0 |
| 20260505095025 | 41 | 326 | 2.6 | 5.2 | 0.00 | 0.00 | 0.00 | 53 | 1015.0 |
| 20260505094542 | 41 | 293 | 2.6 | 6.1 | 0.00 | 0.00 | 0.00 | 52 | 1015.0 |
| 20260505094023 | 41 | 326 | 2.6 | 6.1 | 0.00 | 0.00 | 0.00 | 52 | 1015.0 |
| 20260505093523 | 41 | 332 | 2.6 | 4.3 | 0.00 | 0.00 | 0.00 | 53 | 1015.0 |
| 20260505093038 | 41 | 303 | 0.9 | 2.6 | 0.00 | 0.00 | 0.00 | 54 | 1015.1 |
| 20260505092523 | 42 | 323 | 0.9 | 2.6 | 0.00 | 0.00 | 0.00 | 53 | 1015.0 |
| 20260505092022 | 42 | 323 | 0.9 | 2.6 | 0.00 | 0.00 | 0.00 | 53 | 1015.0 |
| 20260505091549 | 42 | 0 | 0.9 | 4.3 | 0.00 | 0.00 | 0.00 | 52 | 1015.0 |
| 20260505091025 | 43 | 332 | 1.7 | 5.2 | 0.00 | 0.00 | 0.00 | 51 | 1015.0 |
| 20260505090522 | 43 | 339 | 1.7 | 5.2 | 0.00 | 0.00 | 0.00 | 51 | 1015.0 |
| 20260505090055 | 43 | 307 | 1.7 | 4.3 | 0.00 | 0.00 | 0.00 | 50 | 1014.9 |
| 20260505085522 | 43 | 305 | 1.7 | 4.3 | 0.00 | 0.00 | 0.00 | 50 | 1015.0 |
| 20260505085026 | 44 | 311 | 1.7 | 4.3 | 0.00 | 0.00 | 0.00 | 50 | 1014.9 |
| 20260505084538 | 44 | 327 | 1.7 | 4.3 | 0.00 | 0.00 | 0.00 | 50 | 1014.9 |
| 20260505084024 | 44 | 337 | 1.7 | 4.3 | 0.00 | 0.00 | 0.00 | 50 | 1015.0 |
| 20260505083525 | 44 | 340 | 2.6 | 5.2 | 0.00 | 0.00 | 0.00 | 49 | 1015.1 |
| 20260505083047 | 44 | 314 | 1.7 | 7.0 | 0.00 | 0.00 | 0.00 | 49 | 1015.1 |
| 20260505082527 | 45 | 323 | 1.7 | 7.0 | 0.00 | 0.00 | 0.00 | 49 | 1015.1 |
| 20260505082023 | 45 | 304 | 2.6 | 7.0 | 0.00 | 0.00 | 0.00 | 49 | 1015.0 |
| 20260505081543 | 44 | 327 | 1.7 | 5.2 | 0.00 | 0.00 | 0.00 | 50 | 1015.0 |
| 20260505081022 | 44 | 357 | 1.7 | 5.2 | 0.00 | 0.00 | 0.00 | 51 | 1015.1 |
| 20260505080526 | 45 | 311 | 0.9 | 8.7 | 0.00 | 0.00 | 0.00 | 52 | 1015.1 |
| 20260505080045 | 45 | 352 | 1.7 | 8.7 | 0.00 | 0.00 | 0.00 | 50 | 1015.2 |
| 20260505075522 | 45 | 49 | 2.6 | 8.7 | 0.00 | 0.00 | 0.00 | 50 | 1015.2 |
| 20260505075024 | 44 | 0 | 0.9 | 4.3 | 0.00 | 0.00 | 0.00 | 51 | 1015.2 |
| 20260505074539 | 45 | 351 | 1.7 | 4.3 | 0.00 | 0.00 | 0.00 | 51 | 1015.2 |
| 20260505074025 | 45 | 342 | 2.6 | 4.3 | 0.00 | 0.00 | 0.00 | 51 | 1015.2 |
| 20260505073524 | 45 | 4 | 0.9 | 4.3 | 0.00 | 0.00 | 0.00 | 51 | 1015.1 |
| 20260505073045 | 45 | 1 | 1.7 | 5.2 | 0.00 | 0.00 | 0.00 | 50 | 1015.2 |
| 20260505072526 | 45 | 28 | 2.6 | 5.2 | 0.00 | 0.00 | 0.00 | 49 | 1015.2 |
| 20260505072027 | 45 | 341 | 1.7 | 6.1 | 0.00 | 0.00 | 0.00 | 50 | 1015.0 |
| 20260505071543 | 45 | 352 | 3.5 | 6.1 | 0.00 | 0.00 | 0.00 | 51 | 1015.2 |
| 20260505071026 | 45 | 32 | 3.5 | 6.1 | 0.00 | 0.00 | 0.00 | 53 | 1015.2 |
| 20260505070523 | 45 | 13 | 1.7 | 6.1 | 0.00 | 0.00 | 0.00 | 56 | 1015.1 |
| 20260505070038 | 45 | 349 | 3.5 | 6.1 | 0.00 | 0.00 | 0.00 | 56 | 1015.0 |
| 20260505065523 | 45 | 344 | 2.6 | 5.2 | 0.00 | 0.00 | 0.00 | 56 | 1015.0 |
| 20260505065022 | 45 | 17 | 2.6 | 5.2 | 0.00 | 0.00 | 0.00 | 56 | 1015.1 |
| 20260505064536 | 45 | 340 | 1.7 | 5.2 | 0.00 | 0.00 | 0.00 | 57 | 1015.1 |
| 20260505064022 | 45 | 338 | 2.6 | 5.2 | 0.00 | 0.00 | 0.00 | 57 | 1015.0 |
| 20260505063522 | 45 | 359 | 1.7 | 6.1 | 0.00 | 0.00 | 0.00 | 56 | 1015.2 |
| 20260505063046 | 45 | 78 | 2.6 | 7.8 | 0.00 | 0.00 | 0.00 | 56 | 1015.1 |
| 20260505062522 | 45 | 12 | 2.6 | 7.8 | 0.00 | 0.00 | 0.00 | 56 | 1015.1 |
| 20260505062030 | 45 | 30 | 1.7 | 7.8 | 0.00 | 0.00 | 0.00 | 57 | 1015.2 |
| 20260505061539 | 45 | 60 | 3.5 | 7.8 | 0.00 | 0.00 | 0.00 | 57 | 1015.1 |
| 20260505061026 | 45 | 42 | 2.6 | 11.3 | 0.00 | 0.00 | 0.00 | 58 | 1015.1 |
| 20260505060527 | 45 | 30 | 2.6 | 11.3 | 0.00 | 0.00 | 0.00 | 58 | 1015.1 |
| 20260505060039 | 45 | 20 | 4.3 | 9.6 | 0.00 | 0.00 | 0.00 | 58 | 1015.0 |
| 20260505055528 | 45 | 22 | 4.3 | 11.3 | 0.00 | 0.00 | 0.00 | 58 | 1015.0 |
| 20260505055027 | 45 | 355 | 5.2 | 13.9 | 0.00 | 0.00 | 0.00 | 58 | 1015.0 |
| 20260505054558 | 45 | 2 | 6.1 | 13.9 | 0.00 | 0.00 | 0.00 | 58 | 1014.9 |
| 20260505054028 | 46 | 13 | 3.5 | 7.8 | 0.00 | 0.00 | 0.00 | 57 | 1014.9 |
| 20260505053528 | 47 | 356 | 3.5 | 8.7 | 0.00 | 0.00 | 0.00 | 54 | 1014.8 |
| 20260505053048 | 47 | 32 | 3.5 | 8.7 | 0.00 | 0.00 | 0.00 | 52 | 1014.6 |
| 20260505052527 | 48 | 321 | 5.2 | 8.7 | 0.00 | 0.00 | 0.00 | 51 | 1014.5 |
| 20260505052028 | 48 | 354 | 5.2 | 9.6 | 0.00 | 0.00 | 0.00 | 51 | 1014.5 |
| 20260505051542 | 48 | 356 | 4.3 | 9.6 | 0.00 | 0.00 | 0.00 | 51 | 1014.4 |
| 20260505051027 | 48 | 356 | 3.5 | 7.8 | 0.00 | 0.00 | 0.00 | 51 | 1014.3 |
| 20260505050528 | 48 | 319 | 3.5 | 7.8 | 0.00 | 0.00 | 0.00 | 51 | 1014.5 |
| 20260505041548 | 49 | 330 | 5.2 | 10.4 | 0.00 | 0.00 | 0.00 | 49 | 1014.2 |
| 20260505041026 | 49 | 325 | 5.2 | 9.6 | 0.00 | 0.00 | 0.00 | 49 | 1014.0 |
| 20260505040527 | 49 | 347 | 5.2 | 9.6 | 0.00 | 0.00 | 0.00 | 50 | 1014.0 |
| 20260505040042 | 49 | 333 | 3.5 | 6.1 | 0.00 | 0.00 | 0.00 | 50 | 1014.0 |
| 20260505035526 | 49 | 347 | 3.5 | 6.1 | 0.00 | 0.00 | 0.00 | 50 | 1014.0 |
| 20260505035026 | 49 | 13 | 2.6 | 6.1 | 0.00 | 0.00 | 0.00 | 50 | 1014.0 |
| 20260505034537 | 49 | 313 | 2.6 | 6.1 | 0.00 | 0.00 | 0.00 | 49 | 1014.0 |
| 20260505034027 | 49 | 336 | 1.7 | 6.1 | 0.00 | 0.00 | 0.00 | 49 | 1013.9 |
| 20260505033527 | 49 | 333 | 1.7 | 6.1 | 0.00 | 0.00 | 0.00 | 48 | 1013.8 |
| 20260505033037 | 49 | 274 | 1.7 | 6.1 | 0.00 | 0.00 | 0.00 | 49 | 1013.8 |
| 20260505032527 | 49 | 335 | 1.7 | 6.1 | 0.00 | 0.00 | 0.00 | 48 | 1013.8 |
| 20260505032026 | 49 | 307 | 2.6 | 7.8 | 0.00 | 0.00 | 0.00 | 48 | 1013.7 |
| 20260505031541 | 49 | 333 | 4.3 | 7.8 | 0.00 | 0.00 | 0.00 | 48 | 1013.6 |
| 20260505031028 | 49 | 1 | 2.6 | 10.4 | 0.00 | 0.00 | 0.00 | 48 | 1013.6 |
| 20260505030527 | 49 | 336 | 2.6 | 10.4 | 0.00 | 0.00 | 0.00 | 48 | 1013.5 |
| 20260505030053 | 49 | 353 | 3.5 | 7.8 | 0.00 | 0.00 | 0.00 | 48 | 1013.3 |
| 20260505025528 | 49 | 311 | 3.5 | 7.8 | 0.00 | 0.00 | 0.00 | 48 | 1013.4 |
| 20260505025026 | 49 | 330 | 2.6 | 7.8 | 0.00 | 0.00 | 0.00 | 48 | 1013.4 |
| 20260505024537 | 49 | 327 | 4.3 | 8.7 | 0.00 | 0.00 | 0.00 | 48 | 1013.3 |
| 20260505024026 | 49 | 352 | 4.3 | 10.4 | 0.00 | 0.00 | 0.00 | 48 | 1013.3 |
| 20260505023528 | 49 | 347 | 4.3 | 10.4 | 0.00 | 0.00 | 0.00 | 47 | 1013.2 |
| 20260505023042 | 50 | 325 | 4.3 | 13.0 | 0.00 | 0.00 | 0.00 | 47 | 1013.1 |
| 20260505022526 | 50 | 340 | 5.2 | 13.0 | 0.00 | 0.00 | 0.00 | 47 | 1013.2 |
| 20260505022027 | 50 | 338 | 4.3 | 9.6 | 0.00 | 0.00 | 0.00 | 47 | 1013.2 |
| 20260505021549 | 50 | 333 | 4.3 | 9.6 | 0.00 | 0.00 | 0.00 | 46 | 1013.0 |
| 20260505021026 | 50 | 1 | 4.3 | 9.6 | 0.00 | 0.00 | 0.00 | 46 | 1013.0 |
| 20260505020526 | 50 | 286 | 3.5 | 11.3 | 0.00 | 0.00 | 0.00 | 46 | 1012.9 |
| 20260505020049 | 50 | 347 | 4.3 | 13.0 | 0.00 | 0.00 | 0.00 | 46 | 1013.0 |
| 20260505015527 | 51 | 330 | 4.3 | 13.9 | 0.00 | 0.00 | 0.00 | 45 | 1012.8 |
| 20260505015026 | 51 | 314 | 6.1 | 13.9 | 0.00 | 0.00 | 0.00 | 45 | 1012.8 |
| 20260505014537 | 51 | 308 | 6.1 | 12.2 | 0.00 | 0.00 | 0.00 | 44 | 1012.7 |
| 20260505014026 | 51 | 304 | 5.2 | 13.9 | 0.00 | 0.00 | 0.00 | 44 | 1012.7 |
| 20260505013526 | 51 | 324 | 5.2 | 13.9 | 0.00 | 0.00 | 0.00 | 44 | 1012.8 |
| 20260505013043 | 52 | 314 | 4.3 | 10.4 | 0.00 | 0.00 | 0.00 | 43 | 1012.8 |
| 20260505012526 | 52 | 305 | 5.2 | 10.4 | 0.00 | 0.00 | 0.00 | 43 | 1012.8 |
| 20260505012026 | 52 | 333 | 4.3 | 10.4 | 0.00 | 0.00 | 0.00 | 43 | 1012.7 |
| 20260505011541 | 52 | 319 | 4.3 | 10.4 | 0.00 | 0.00 | 0.00 | 43 | 1012.7 |
| 20260505011026 | 52 | 324 | 4.3 | 12.2 | 0.00 | 0.00 | 0.00 | 43 | 1012.6 |
| 20260505010525 | 52 | 335 | 4.3 | 12.2 | 0.00 | 0.00 | 0.00 | 43 | 1012.7 |
| 20260505005527 | 52 | 359 | 4.3 | 9.6 | 0.00 | 0.00 | 0.00 | 43 | 1012.5 |
| 20260505005031 | 52 | 298 | 4.3 | 9.6 | 0.00 | 0.00 | 0.00 | 44 | 1012.5 |
| 20260505004536 | 52 | 309 | 5.2 | 10.4 | 0.00 | 0.00 | 0.00 | 43 | 1012.3 |
| 20260505004027 | 52 | 330 | 5.2 | 10.4 | 0.00 | 0.00 | 0.00 | 43 | 1012.4 |
| 20260505003527 | 52 | 328 | 5.2 | 10.4 | 0.00 | 0.00 | 0.00 | 43 | 1012.3 |
| 20260505003046 | 52 | 317 | 5.2 | 13.9 | 0.00 | 0.00 | 0.00 | 43 | 1012.3 |
| 20260505002529 | 52 | 319 | 6.1 | 13.9 | 0.00 | 0.00 | 0.00 | 43 | 1012.2 |
| 20260505002026 | 52 | 310 | 4.3 | 13.9 | 0.00 | 0.00 | 0.00 | 42 | 1012.1 |
| 20260505001539 | 53 | 327 | 6.1 | 13.9 | 0.00 | 0.00 | 0.00 | 42 | 1012.0 |
| 20260505001025 | 53 | 300 | 6.1 | 13.9 | 0.00 | 0.00 | 0.00 | 42 | 1012.0 |
| 20260505000528 | 53 | 311 | 6.1 | 13.0 | 0.00 | 0.00 | 0.00 | 43 | 1012.0 |
| 20260505000051 | 53 | 262 | 6.1 | 13.0 | 0.00 | 0.00 | 0.00 | 43 | 1011.9 |
| 20260504235527 | 53 | 328 | 7.0 | 13.0 | 0.00 | 0.00 | 0.00 | 42 | 1011.9 |
| 20260504235025 | 53 | 295 | 6.1 | 13.9 | 0.00 | 0.00 | 0.00 | 43 | 1011.8 |
| 20260504234539 | 53 | 305 | 6.1 | 13.9 | 0.00 | 0.00 | 0.00 | 43 | 1011.9 |
| 20260504234026 | 53 | 286 | 6.1 | 13.9 | 0.00 | 0.00 | 0.00 | 43 | 1011.8 |
| 20260504233526 | 53 | 278 | 5.2 | 14.8 | 0.00 | 0.00 | 0.00 | 43 | 1011.6 |
| 20260504233044 | 53 | 356 | 6.1 | 14.8 | 0.00 | 0.00 | 0.00 | 43 | 1011.6 |
| 20260504232522 | 53 | 280 | 6.1 | 12.2 | 0.00 | 0.00 | 0.00 | 43 | 1011.7 |
| 20260504232022 | 53 | 328 | 6.1 | 13.9 | 0.00 | 0.00 | 0.00 | 43 | 1011.6 |
| 20260504231537 | 53 | 316 | 6.1 | 13.9 | 0.00 | 0.00 | 0.00 | 43 | 1011.6 |
| 20260504231022 | 53 | 293 | 6.1 | 13.0 | 0.00 | 0.00 | 0.00 | 43 | 1011.6 |
| 20260504230523 | 53 | 332 | 5.2 | 16.5 | 0.00 | 0.00 | 0.00 | 44 | 1011.8 |
| 20260504230043 | 53 | 322 | 6.1 | 16.5 | 0.00 | 0.00 | 0.00 | 43 | 1011.7 |
| 20260504225523 | 53 | 330 | 7.0 | 15.6 | 0.00 | 0.00 | 0.00 | 41 | 1011.7 |
| 20260504225024 | 54 | 251 | 7.0 | 14.8 | 0.00 | 0.00 | 0.00 | 42 | 1011.6 |
| 20260504224550 | 55 | 331 | 6.1 | 14.8 | 0.00 | 0.00 | 0.00 | 41 | 1011.6 |
| 20260504224025 | 56 | 349 | 6.1 | 16.5 | 0.00 | 0.00 | 0.00 | 40 | 1011.7 |
| 20260504223523 | 56 | 322 | 7.8 | 16.5 | 0.00 | 0.00 | 0.00 | 40 | 1011.7 |
| 20260504223039 | 55 | 2 | 7.8 | 15.6 | 0.00 | 0.00 | 0.00 | 40 | 1011.7 |
| 20260504222522 | 55 | 314 | 7.0 | 13.9 | 0.00 | 0.00 | 0.00 | 41 | 1011.7 |
| 20260504222023 | 55 | 324 | 6.1 | 15.6 | 0.00 | 0.00 | 0.00 | 41 | 1011.8 |
| 20260504221539 | 55 | 341 | 7.8 | 15.6 | 0.00 | 0.00 | 0.00 | 41 | 1011.8 |
| 20260504221028 | 56 | 276 | 5.2 | 17.4 | 0.00 | 0.00 | 0.00 | 41 | 1011.8 |
| 20260504220525 | 56 | 51 | 7.8 | 17.4 | 0.00 | 0.00 | 0.00 | 41 | 1011.8 |
| 20260504220043 | 57 | 352 | 7.8 | 17.4 | 0.00 | 0.00 | 0.00 | 40 | 1011.6 |
| 20260504215524 | 57 | 343 | 7.8 | 16.5 | 0.00 | 0.00 | 0.00 | 41 | 1011.6 |
| 20260504215022 | 57 | 325 | 7.0 | 16.5 | 0.00 | 0.00 | 0.00 | 40 | 1011.3 |
| 20260504214543 | 56 | 359 | 7.8 | 16.5 | 0.00 | 0.00 | 0.00 | 41 | 1011.3 |
| 20260504214022 | 56 | 359 | 6.1 | 16.5 | 0.00 | 0.00 | 0.00 | 40 | 1011.6 |
| 20260504213522 | 57 | 340 | 5.2 | 16.5 | 0.00 | 0.00 | 0.00 | 41 | 1011.6 |
| 20260504213042 | 56 | 359 | 7.0 | 16.5 | 0.00 | 0.00 | 0.00 | 40 | 1011.6 |
| 20260504212524 | 57 | 311 | 8.7 | 18.2 | 0.00 | 0.00 | 0.00 | 40 | 1011.6 |
| 20260504212023 | 58 | 314 | 8.7 | 18.2 | 0.00 | 0.00 | 0.00 | 41 | 1011.7 |
| 20260504211541 | 58 | 346 | 8.7 | 18.2 | 0.00 | 0.00 | 0.00 | 41 | 1011.7 |
| 20260504211022 | 58 | 323 | 6.1 | 13.9 | 0.00 | 0.00 | 0.00 | 41 | 1011.6 |
| 20260504210522 | 58 | 307 | 7.0 | 13.9 | 0.00 | 0.00 | 0.00 | 40 | 1011.5 |
| 20260504210052 | 59 | 327 | 6.1 | 12.2 | 0.00 | 0.00 | 0.00 | 40 | 1011.8 |
| 20260504205525 | 59 | 316 | 7.8 | 16.5 | 0.00 | 0.00 | 0.00 | 40 | 1011.6 |
| 20260504205029 | 58 | 354 | 7.8 | 16.5 | 0.00 | 0.00 | 0.00 | 42 | 1011.7 |
| 20260504204545 | 58 | 334 | 7.8 | 14.8 | 0.00 | 0.00 | 0.00 | 41 | 1011.7 |
| 20260504204021 | 58 | 343 | 7.8 | 14.8 | 0.00 | 0.00 | 0.00 | 41 | 1011.8 |
| 20260504203521 | 59 | 319 | 7.0 | 14.8 | 0.00 | 0.00 | 0.00 | 41 | 1011.8 |
| 20260504203039 | 59 | 303 | 7.0 | 15.6 | 0.00 | 0.00 | 0.00 | 41 | 1011.8 |
| 20260504202527 | 58 | 285 | 7.0 | 16.5 | 0.00 | 0.00 | 0.00 | 43 | 1011.8 |
| 20260504202027 | 59 | 341 | 7.0 | 16.5 | 0.00 | 0.00 | 0.00 | 41 | 1011.9 |
| 20260504201538 | 58 | 28 | 8.7 | 16.5 | 0.00 | 0.00 | 0.00 | 40 | 1011.8 |
| 20260504201029 | 58 | 339 | 7.8 | 15.6 | 0.00 | 0.00 | 0.00 | 43 | 1011.6 |
| 20260504200530 | 58 | 345 | 6.1 | 19.1 | 0.00 | 0.00 | 0.00 | 41 | 1011.6 |
| 20260504200052 | 58 | 345 | 7.8 | 19.1 | 0.00 | 0.00 | 0.00 | 41 | 1011.8 |
| 20260504195524 | 58 | 294 | 7.0 | 12.2 | 0.00 | 0.00 | 0.00 | 42 | 1011.7 |
| 20260504195027 | 58 | 343 | 5.2 | 12.2 | 0.00 | 0.00 | 0.00 | 41 | 1011.9 |
| 20260504194537 | 56 | 332 | 5.2 | 12.2 | 0.00 | 0.00 | 0.00 | 43 | 1011.9 |
| 20260504194028 | 57 | 304 | 6.1 | 13.9 | 0.00 | 0.00 | 0.00 | 42 | 1012.0 |
| 20260504193528 | 56 | 330 | 7.0 | 13.9 | 0.00 | 0.00 | 0.00 | 46 | 1012.0 |
| 20260504193042 | 56 | 340 | 5.2 | 13.9 | 0.00 | 0.00 | 0.00 | 44 | 1012.1 |
| 20260504192524 | 56 | 312 | 7.0 | 13.9 | 0.00 | 0.00 | 0.00 | 43 | 1012.1 |
| 20260504192030 | 56 | 344 | 5.2 | 12.2 | 0.00 | 0.00 | 0.00 | 45 | 1012.2 |
| 20260504191538 | 57 | 335 | 6.1 | 13.0 | 0.00 | 0.00 | 0.00 | 43 | 1012.2 |
| 20260504191027 | 57 | 343 | 4.3 | 13.0 | 0.00 | 0.00 | 0.00 | 44 | 1012.3 |
| 20260504190527 | 57 | 358 | 6.1 | 13.0 | 0.00 | 0.00 | 0.00 | 44 | 1012.4 |
| 20260504190036 | 57 | 357 | 6.1 | 13.0 | 0.00 | 0.00 | 0.00 | 46 | 1012.3 |
| 20260504185526 | 56 | 2 | 6.1 | 13.9 | 0.00 | 0.00 | 0.00 | 44 | 1012.5 |
| 20260504185027 | 57 | 7 | 6.1 | 13.9 | 0.00 | 0.00 | 0.00 | 45 | 1012.5 |
| 20260504184542 | 57 | 342 | 7.8 | 13.9 | 0.00 | 0.00 | 0.00 | 43 | 1012.5 |
| 20260504184031 | 57 | 347 | 5.2 | 12.2 | 0.00 | 0.00 | 0.00 | 45 | 1012.5 |
| 20260504183526 | 56 | 347 | 5.2 | 12.2 | 0.00 | 0.00 | 0.00 | 47 | 1012.6 |
| 20260504183038 | 55 | 331 | 3.5 | 13.0 | 0.00 | 0.00 | 0.00 | 48 | 1012.6 |
| 20260504182526 | 55 | 347 | 7.8 | 15.6 | 0.00 | 0.00 | 0.00 | 47 | 1012.7 |
| 20260504182024 | 55 | 68 | 5.2 | 15.6 | 0.00 | 0.00 | 0.00 | 47 | 1012.7 |
| 20260504181538 | 55 | 42 | 7.0 | 15.6 | 0.00 | 0.00 | 0.00 | 47 | 1012.5 |
| 20260504181027 | 54 | 60 | 7.8 | 15.6 | 0.00 | 0.00 | 0.00 | 48 | 1012.7 |
| 20260504180524 | 55 | 25 | 7.0 | 13.0 | 0.00 | 0.00 | 0.00 | 45 | 1012.8 |
| 20260504180037 | 56 | 72 | 4.3 | 14.8 | 0.00 | 0.00 | 0.00 | 47 | 1012.7 |
| 20260504175526 | 56 | 32 | 7.8 | 14.8 | 0.00 | 0.00 | 0.00 | 46 | 1012.8 |
| 20260504175026 | 56 | 60 | 7.8 | 14.8 | 0.00 | 0.00 | 0.00 | 44 | 1012.6 |
| 20260504174536 | 57 | 4 | 5.2 | 12.2 | 0.00 | 0.00 | 0.00 | 46 | 1012.7 |
| 20260504174027 | 55 | 323 | 7.0 | 12.2 | 0.00 | 0.00 | 0.00 | 44 | 1012.7 |
| 20260504173530 | 56 | 56 | 2.6 | 12.2 | 0.00 | 0.00 | 0.00 | 46 | 1012.6 |
| 20260504173037 | 56 | 18 | 4.3 | 11.3 | 0.00 | 0.00 | 0.00 | 45 | 1012.7 |
| 20260504172524 | 56 | 307 | 4.3 | 9.6 | 0.00 | 0.00 | 0.00 | 46 | 1012.7 |
| 20260504172027 | 55 | 360 | 4.3 | 10.4 | 0.00 | 0.00 | 0.00 | 46 | 1012.8 |
| 20260504171537 | 55 | 55 | 5.2 | 11.3 | 0.00 | 0.00 | 0.00 | 47 | 1012.9 |
| 20260504171027 | 55 | 3 | 3.5 | 11.3 | 0.00 | 0.00 | 0.00 | 46 | 1012.8 |
| 20260504170526 | 55 | 49 | 5.2 | 11.3 | 0.00 | 0.00 | 0.00 | 47 | 1012.9 |